Stations météo

réclame
Mon MeteoGroup
Barth, Allemagne (10180): Température de l'air & dewpoint: 08.08.2018 08:00:00 - 14.08.2018 08:00:00 (CEST)Barth, Allemagne (10180): Température de l'air 5cm & Température de l'air -5cm: 08.08.2018 08:00:00 - 14.08.2018 08:00:00 (CEST)Barth, Allemagne (10180): Température de l'air -20cm & Température de l'air -100cm: 08.08.2018 08:00:00 - 14.08.2018 08:00:00 (CEST)Barth, Allemagne (10180): Vitesse du vent & gusts: 08.08.2018 08:00:00 - 14.08.2018 08:00:00 (CEST)Barth, Allemagne (10180): Direction du vent: 08.08.2018 08:00:00 - 14.08.2018 08:00:00 (CEST)Barth, Allemagne (10180): reduced air pressure: 08.08.2018 08:00:00 - 14.08.2018 08:00:00 (CEST)Barth, Allemagne (10180): visibility: 08.08.2018 08:00:00 - 14.08.2018 08:00:00 (CEST)Barth, Allemagne (10180): Ensoleillement: 08.08.2018 08:00:00 - 14.08.2018 08:00:00 (CEST)Barth, Allemagne (10180): Quantités de précipitations: 08.08.2018 08:00:00 - 14.08.2018 08:00:00 (CEST)
Date & Time tt [°C] td [°C] tt 5cm [°C] tt -5cm [°C] tt -20cm [°C] tt -100cm [°C] ff [km/h] ff [knt] fx [km/h] fx [knt] dd ppp [hPa] vv [km] sd [min] rr [mm]
14.08.2018 08:00:00 17,3 14,7 17,3 16,9 18,0 17,9 15 8 26 14 SSW 1006,4 8 0 0,0
14.08.2018 07:00:00 16,8 14,6 16,5 16,3 18,1 17,9 17 9 24 13 SSW 1006,2 9 0 0,0
14.08.2018 06:00:00 15,8 14,0 14,3 15,9 18,3 17,9 10 5 19 11 SW 1005,8 15 0 0,0
14.08.2018 05:00:00 16,7 14,3 15,2 16,4 18,5 17,9 12 7 19 10 SW 1005,7 26 0 0,0
14.08.2018 04:00:00 16,8 14,4 15,2 16,3 18,7 17,9 9 5 16 9 SSW 1005,5 38 0 0,0
14.08.2018 03:00:00 16,7 14,1 13,7 16,6 19,0 17,9 7 4 13 7 S 1005,4 45 0 0,0
14.08.2018 02:00:00 17,4 14,1 15,2 17,1 19,2 17,9 9 5 19 10 S 1005,4 35 0 0,0
14.08.2018 01:00:00 15,6 14,8 13,7 17,2 19,5 17,9 3 2 5 3 S 1005,7 12 0 0,0
14.08.2018 00:00:00 15,5 14,5 12,7 17,6 19,8 17,9 3 2 8 4 S 1005,9 13 0 0,0
13.08.2018 23:00:00 17,7 15,4 14,9 18,7 20,1 18,0 3 1 9 5 WSW 1005,8 29 0 0,0
13.08.2018 22:00:00 20,0 16,1 18,4 19,4 20,3 18,0 3 2 16 9 N 1006,0 37 0 0,0
13.08.2018 21:00:00 20,6 14,9 18,8 19,8 20,5 18,0 8 4 17 9 NNE 1006,2 42 0 0,0
13.08.2018 20:00:00 21,6 15,4 20,3 20,4 20,7 18,0 3 2 19 11 SSW 1006,4 45 0 0,0
13.08.2018 19:00:00 22,1 15,1 21,0 20,6 21,0 18,0 18 10 35 19 ESE 1006,2 39 0 0,0
13.08.2018 18:00:00 23,0 13,2 22,1 21,7 21,1 18,0 21 12 32 17 E 1006,0 55 0 0,0
13.08.2018 17:00:00 24,5 11,7 23,7 23,5 21,0 18,0 23 13 31 17 E 1006,2 41 29 0,0
13.08.2018 16:00:00 25,8 11,6 27,7 25,7 20,6 18,0 22 12 31 17 E 1006,4 19 56 0,0
13.08.2018 15:00:00 24,9 12,7 25,4 25,4 20,1 18,0 18 10 28 15 E 1007,0 39 50 0,0
13.08.2018 14:00:00 25,1 12,8 28,3 25,1 19,5 18,1 17 9 23 12 E 1007,7 35 24 0,0
13.08.2018 13:00:00 24,3 12,5 27,0 24,9 18,8 18,1 16 9 24 13 E 1007,8 20 48 0,0
13.08.2018 12:00:00 22,5 13,2 23,9 22,4 18,4 18,1 12 6 22 12 ESE 1008,5 30 9 0,0
13.08.2018 11:00:00 21,0 13,1 21,9 20,3 18,1 18,1 14 8 20 11 ESE 1008,7 12 0 0,0
13.08.2018 10:00:00 20,4 12,8 20,9 19,5 17,8 18,1 15 8 23 13 SE 1008,8 16 3 0,0
13.08.2018 09:00:00 19,2 14,1 19,4 18,0 17,7 18,1 13 7 22 12 SE 1009,1 50 0 0,0
13.08.2018 08:00:00 18,2 14,6 17,9 17,1 17,7 18,1 14 8 21 11 SE 1009,0 39 0 0,0
13.08.2018 07:00:00 17,3 14,6 16,8 16,5 17,8 18,2 12 6 23 12 SE 1009,1 31 0 0,0
13.08.2018 06:00:00 16,9 14,2 15,8 16,4 17,9 18,2 14 8 20 11 ESE 1009,5 25 0 0,1
13.08.2018 05:00:00 16,4 13,9 15,4 16,4 18,0 18,2 8 4 18 10 ESE 1010,1 23 0 0,0
13.08.2018 04:00:00 16,8 13,8 16,0 16,7 18,1 18,2 8 4 14 7 SE 1010,5 22 0 0,0
13.08.2018 03:00:00 16,5 13,9 15,8 16,7 18,3 18,2 5 3 16 9 E 1010,9 17 0 0,0
13.08.2018 02:00:00 16,4 13,2 15,7 16,8 18,4 18,2 12 7 20 11 ESE 1010,9 17 0 0,0
13.08.2018 01:00:00 15,7 14,0 15,2 17,1 18,6 18,3 3 2 10 5 NNE 1011,9 9 0 0,0
13.08.2018 00:00:00 16,3 13,3 15,6 17,1 18,8 18,3 7 4 19 10 ESE 1011,9 10 0 0,0
12.08.2018 23:00:00 16,4 13,2 15,9 17,6 19,0 18,3 11 6 16 9 E 1012,2 16 0 0,0
12.08.2018 22:00:00 16,6 13,2 16,1 18,0 19,2 18,3 8 4 10 6 NE 1012,5 14 0 0,0
12.08.2018 21:00:00 17,0 12,9 16,4 18,4 19,3 18,3 8 4 13 7 ENE 1012,7 17 0 0,0
12.08.2018 20:00:00 17,8 13,2 17,3 19,2 19,5 18,4 2 1 9 5 NE 1013,2 19 0 0,0
12.08.2018 19:00:00 18,3 12,0 17,9 19,5 19,6 18,4 3 2 10 6 W 1013,7 29 0 0,0
12.08.2018 18:00:00 18,8 11,0 18,9 20,1 19,7 18,4 9 5 20 11 WNW 1014,0 29 0 0,0
12.08.2018 17:00:00 19,0 11,2 19,1 21,0 19,6 18,4 13 7 24 13 WNW 1014,6 28 0 0,0
12.08.2018 16:00:00 20,2 10,8 21,9 21,9 19,4 18,4 18 10 29 16 W 1015,0 38 14 0,0
12.08.2018 15:00:00 19,8 9,4 20,8 22,5 19,0 18,4 20 11 31 17 W 1015,4 40 42 0,0
12.08.2018 14:00:00 20,3 10,7 23,3 23,5 18,4 18,4 18 10 29 16 W 1015,9 39 54 0,0
12.08.2018 13:00:00 20,2 10,0 22,6 22,5 17,7 18,5 21 11 36 19 W 1016,2 26 56 0,0
12.08.2018 12:00:00 19,2 8,9 21,3 21,4 17,1 18,5 23 13 37 20 WSW 1016,8 13 60 0,0
12.08.2018 11:00:00 18,2 10,0 20,0 19,8 16,6 18,5 24 13 37 20 SW 1016,8 14 59 0,0
12.08.2018 10:00:00 17,6 12,6 19,4 18,1 16,2 18,5 25 14 40 22 SW 1017,1 23 55 0,0
12.08.2018 09:00:00 15,8 12,2 16,9 16,2 15,9 18,5 18 10 31 17 SW 1017,2 35 50 0,0
12.08.2018 08:00:00 14,4 12,1 14,2 14,4 15,9 18,5 16 9 27 15 SW 1017,3 28 7 0,0
12.08.2018 07:00:00 13,6 11,6 12,9 13,4 16,0 18,6 18 10 26 14 SW 1017,2 31 0 0,0
12.08.2018 06:00:00 12,7 10,9 11,6 12,8 16,1 18,6 12 7 27 15 SW 1017,0 35 0 0,0
12.08.2018 05:00:00 13,1 11,0 11,9 13,0 16,2 18,6 18 10 25 13 SSW 1017,0 34 0 0,0
12.08.2018 04:00:00 13,5 10,5 11,8 13,5 16,3 18,6 14 8 33 18 SW 1017,1 70 0 0,0
12.08.2018 03:00:00 14,0 11,4 12,6 14,0 16,4 18,6 10 5 30 16 WSW 1017,2 70 0 5,7
12.08.2018 02:00:00 13,8 11,6 12,9 14,1 16,8 18,6 18 10 38 20 W 1017,4 1,8 0 2,5
12.08.2018 01:00:00 14,6 10,0 12,7 14,3 16,9 18,6 23 12 38 20 WNW 1017,6 7 0 0,2
12.08.2018 00:00:00 15,2 11,6 14,0 14,2 16,9 18,6 21 12 34 19 W 1017,2 68 0 0,0
11.08.2018 23:00:00 13,7 11,1 12,4 14,3 17,4 18,6 6 3 48 26 W 1017,4 70 0 6,0
11.08.2018 22:00:00 15,7 9,7 14,4 14,7 18,2 18,7 22 12 34 19 W 1017,1 70 0 0,0
11.08.2018 21:00:00 15,4 10,3 13,6 15,5 18,5 18,7 24 13 50 27 W 1016,7 70 15 2,2
11.08.2018 20:00:00 14,3 10,9 12,9 15,9 18,7 18,7 38 21 54 29 W 1016,1 6 7 1,2
11.08.2018 19:00:00 16,8 11,9 17,6 17,2 18,9 18,7 37 20 58 31 WSW 1015,5 48 20 0,0
11.08.2018 18:00:00 16,8 11,5 16,7 17,6 19,0 18,7 32 17 49 27 WSW 1015,2 68 11 0,0
11.08.2018 17:00:00 15,0 11,2 14,4 18,1 19,1 18,7 26 14 49 26 WSW 1015,7 28 11 1,5
11.08.2018 16:00:00 14,9 10,9 13,9 18,0 19,2 18,7 27 14 61 33 SW 1016,2 62 0 6,2
11.08.2018 15:00:00 14,3 9,8 12,5 19,1 19,1 18,7 39 21 61 33 W 1016,5 40 24 1,1
11.08.2018 14:00:00 18,4 7,8 18,8 21,5 18,6 18,7 27 15 45 25 SW 1016,1 68 40 0,0
11.08.2018 13:00:00 16,8 11,8 21,9 20,3 18,4 18,7 20 11 31 17 SSW 1016,8 19 23 0,1
11.08.2018 12:00:00 14,1 10,9 13,6 17,1 18,3 18,7 19 11 45 24 SSW 1017,4 11 0 0,1
11.08.2018 11:00:00 18,0 8,8 18,4 18,6 18,1 18,7 25 14 44 24 WSW 1017,0 55 23 0,0
11.08.2018 10:00:00 17,8 10,5 18,7 17,7 17,8 18,7 25 13 36 19 WSW 1016,8 40 12 0,0
11.08.2018 09:00:00 17,4 10,9 18,8 16,7 17,8 18,7 16 8 22 12 SSW 1016,7 63 34 0,0
11.08.2018 08:00:00 15,6 10,5 15,2 15,3 17,8 18,8 9 5 21 11 S 1016,8 70 1 0,0
11.08.2018 07:00:00 14,6 9,9 13,6 14,4 18,0 18,8 10 6 16 8 SSE 1017,0 69 0 0,0
11.08.2018 06:00:00 14,3 9,8 12,7 14,1 18,2 18,8 8 5 16 9 SSE 1017,7 61 0 0,0
11.08.2018 05:00:00 14,0 9,7 11,9 14,2 18,5 18,8 11 6 16 9 SSE 1018,2 58 0 0,0
11.08.2018 04:00:00 13,3 10,4 11,3 14,2 18,9 18,8 10 5 14 7 SSE 1018,8 43 0 0,0
11.08.2018 03:00:00 13,7 11,2 11,4 14,5 19,3 18,8 10 5 16 9 SE 1019,4 43 0 0,0
11.08.2018 02:00:00 10,1 9,1 8,0 14,7 19,7 18,8 0 0 5 3 N 1020,1 11 0 0,0
11.08.2018 01:00:00 11,6 10,8 8,4 15,4 20,2 18,8 3 1 4 2 SSE 1020,7 5 0 0,0
11.08.2018 00:00:00 12,5 11,6 9,7 16,2 20,6 18,8 4 2 8 4 ESE 1020,9 17 0 0,0
10.08.2018 23:00:00 12,8 10,5 10,3 17,1 21,0 18,8 7 4 9 5 ESE 1021,0 47 0 0,0
10.08.2018 22:00:00 16,3 11,8 13,9 18,3 21,4 18,8 7 4 12 6 NW 1021,1 55 0 0,0
10.08.2018 21:00:00 15,3 12,1 13,4 19,2 21,7 18,8 4 2 8 5 WNW 1020,8 57 0 0,0
10.08.2018 20:00:00 18,8 10,7 16,9 20,3 21,9 18,8 7 4 19 10 W 1020,3 70 51 0,0
10.08.2018 19:00:00 20,2 10,8 21,4 21,2 21,9 18,8 13 7 35 19 WNW 1020,4 47 60 0,0
10.08.2018 18:00:00 20,9 10,2 22,3 21,8 22,0 18,8 22 12 42 23 W 1020,5 23 60 0,0
10.08.2018 17:00:00 21,0 8,5 22,2 22,3 21,9 18,7 32 17 49 27 W 1020,5 20 58 0,0
10.08.2018 16:00:00 21,1 11,8 23,2 23,0 21,7 18,7 32 17 46 25 W 1020,2 13 60 0,0
10.08.2018 15:00:00 20,9 11,5 23,7 22,8 21,5 18,7 32 18 54 29 WSW 1019,6 9 57 0,0
10.08.2018 14:00:00 20,7 11,5 23,2 22,4 21,2 18,7 36 19 58 31 W 1019,1 8 45 0,0
10.08.2018 13:00:00 20,3 13,2 22,4 22,3 21,1 18,7 35 19 53 28 WSW 1018,4 10 33 0,0
10.08.2018 12:00:00 18,8 12,8 19,4 20,1 21,1 18,7 34 18 54 29 WSW 1017,6 15 10 0,0
10.08.2018 11:00:00 19,3 13,0 19,7 20,0 21,1 18,7 35 19 59 32 WSW 1016,7 16 14 0,0
10.08.2018 10:00:00 19,0 13,6 19,2 19,2 21,3 18,7 26 14 45 24 WSW 1015,4 20 0 0,0
10.08.2018 09:00:00 18,7 13,5 18,4 19,0 21,5 18,7 27 15 46 25 SW 1014,1 45 0 0,0
10.08.2018 08:00:00 18,9 14,2 18,6 19,2 21,7 18,7 30 16 44 24 SW 1013,1 41 44 0,0
10.08.2018 07:00:00 18,8 14,7 18,5 18,6 22,1 18,7 24 13 42 23 SW 1012,2 17 47 0,0
10.08.2018 06:00:00 18,5 13,8 17,1 18,6 22,5 18,7 26 14 40 21 SW 1011,2 37 0 0,0
10.08.2018 05:00:00 19,3 14,7 17,8 19,5 22,9 18,7 27 14 45 24 SW 1010,8 34 0 0,0
10.08.2018 04:00:00 20,2 17,0 18,7 20,3 23,3 18,7 25 13 38 21 SW 1009,8 36 0 0,0
10.08.2018 03:00:00 20,0 18,2 18,8 20,8 23,7 18,7 18 10 27 14 SSW 1009,0 20 0 0,0
10.08.2018 02:00:00 19,4 18,2 18,7 21,3 24,1 18,7 10 5 16 8 S 1008,9 22 0 0,0
10.08.2018 01:00:00 19,7 18,5 19,1 21,8 24,7 18,7 9 5 27 14 SSE 1009,1 22 0 2,5
10.08.2018 00:00:00 19,6 18,6 19,3 22,3 25,3 18,7 19 10 39 21 ESE 1010,0 3,5 0 10,3
09.08.2018 23:00:00 20,1 19,1 19,8 23,8 25,7 18,7 31 17 54 29 SW 1010,8 1,5 0 4,4
09.08.2018 22:00:00 23,2 18,4 22,6 25,4 26,1 18,7 30 16 41 22 E 1008,5 21 0 0,0
09.08.2018 21:00:00 23,2 18,4 22,5 26,3 26,5 18,7 23 13 42 23 E 1009,6 19 0 0,0
09.08.2018 20:00:00 24,3 16,9 23,9 27,8 26,7 18,7 26 14 37 20 E 1010,3 22 42 0,0
09.08.2018 19:00:00 25,5 17,0 26,6 29,6 26,8 18,7 24 13 37 20 ENE 1011,4 27 60 0,0
09.08.2018 18:00:00 27,0 15,0 28,9 31,1 26,6 18,7 26 14 36 19 E 1012,5 21 60 0,0
09.08.2018 17:00:00 27,8 14,5 30,4 32,2 26,3 18,7 22 12 32 18 E 1013,1 30 57 0,0
09.08.2018 16:00:00 25,7 18,1 32,0 33,0 25,8 18,7 19 10 32 17 NNE 1014,1 24 60 0,0
09.08.2018 15:00:00 25,0 17,8 30,7 32,5 25,1 18,7 19 10 29 16 NE 1014,8 27 48 0,0
09.08.2018 14:00:00 25,2 17,1 32,9 32,4 24,3 18,7 19 10 28 15 NNE 1015,3 19 60 0,0
09.08.2018 13:00:00 25,3 16,6 32,1 31,4 23,6 18,7 13 7 20 11 NE 1016,0 29 60 0,0
09.08.2018 12:00:00 24,4 15,8 31,5 29,5 22,8 18,7 10 6 16 9 NE 1016,6 39 60 0,0
09.08.2018 11:00:00 23,9 14,8 29,5 27,4 22,2 18,6 8 5 17 9 NNE 1016,7 33 60 0,0
09.08.2018 10:00:00 22,8 13,9 28,3 25,0 21,8 18,6 6 3 15 8 NNE 1016,8 41 60 0,0
09.08.2018 09:00:00 22,2 14,9 26,4 22,8 21,7 18,6 6 4 12 7 N 1016,7 28 60 0,0
09.08.2018 08:00:00 21,1 16,0 22,6 20,8 21,7 18,6 3 1 6 3 NW 1016,4 26 59 0,0
09.08.2018 07:00:00 16,9 15,5 17,0 19,0 22,1 18,6 2 1 5 3 SSE 1016,4 10 23 0,0
09.08.2018 06:00:00 15,7 15,0 13,3 18,9 22,4 18,6 0 0 6 4 N 1016,1 0,7 0 0,0
09.08.2018 05:00:00 16,3 14,8 13,9 19,6 22,8 18,6 4 2 9 5 NNE 1015,5 7 0 0,0
09.08.2018 04:00:00 19,5 15,8 17,0 20,4 23,1 18,6 5 3 22 12 WNW 1015,2 21 0 0,0
09.08.2018 03:00:00 20,5 17,1 19,4 20,9 23,5 18,6 11 6 25 14 WNW 1014,9 16 0 0,0
09.08.2018 02:00:00 20,7 17,4 19,7 21,2 23,8 18,6 16 9 27 15 W 1014,9 16 0 0,0
09.08.2018 01:00:00 21,2 17,4 20,1 21,8 24,2 18,6 16 9 25 14 W 1014,7 19 0 0,0
09.08.2018 00:00:00 21,9 18,5 20,5 22,4 24,7 18,6 11 6 31 17 WNW 1014,1 18 0 0,0
08.08.2018 23:00:00 22,9 17,7 21,7 23,1 25,1 18,6 22 12 34 18 WNW 1013,4 21 0 0,0
08.08.2018 22:00:00 23,9 17,5 22,5 24,1 25,5 18,6 14 7 23 12 WNW 1012,6 24 0 0,0
08.08.2018 21:00:00 23,6 18,5 21,3 25,4 25,9 18,6 2 1 14 7 SSW 1011,2 23 0 0,0
08.08.2018 20:00:00 25,4 17,8 24,1 26,4 26,2 18,6 7 4 12 7 WNW 1010,3 27 34 0,0
08.08.2018 19:00:00 26,9 17,5 26,7 27,6 26,4 18,6 10 5 28 15 W 1009,9 27 59 0,0
08.08.2018 18:00:00 27,2 16,8 26,7 28,9 26,5 18,6 19 10 49 26 W 1009,3 28 41 1,8
08.08.2018 17:00:00 28,5 14,5 28,2 31,5 26,3 18,6 23 12 32 17 W 1009,2 25 22 0,0
08.08.2018 16:00:00 30,7 15,6 31,7 33,0 25,7 18,6 13 7 19 10 NW 1008,1 23 33 0,0
08.08.2018 15:00:00 32,7 15,9 37,4 33,6 24,9 18,6 9 5 27 15 W 1007,9 23 60 0,0
08.08.2018 14:00:00 32,8 16,0 37,0 32,9 24,0 18,6 16 9 34 18 W 1007,9 19 60 0,0
08.08.2018 13:00:00 32,3 15,5 37,2 31,0 23,2 18,6 15 8 28 15 SSE 1008,2 21 60 0,0
08.08.2018 12:00:00 29,9 15,3 33,6 27,6 22,6 18,6 18 10 29 16 SE 1008,6 21 56 0,0
08.08.2018 11:00:00 27,5 13,3 30,1 24,8 22,4 18,6 19 10 28 15 ESE 1009,0 32 48 0,0
08.08.2018 10:00:00 25,6 12,2 24,6 22,2 22,4 18,6 17 9 28 15 SE 1009,0 43 12 0,0
08.08.2018 09:00:00 24,0 12,2 22,8 21,1 22,5 18,6 20 11 35 19 ESE 1009,0 44 0 0,0
08.08.2018 08:00:00 21,3 12,6 18,0 21,2 22,7 18,6 12 7 40 22 SSE 1008,2 40 3 1,0

tt = Température de l'air
td = dewpoint
tt 5cm = Température de l'air 5cm
tt -5cm = Température de l'air -5cm
tt -20cm = Température de l'air -20cm
tt -100cm = Température de l'air -100cm
ff = Vitesse du vent
fx = gusts
dd = Direction du vent
ppp = reduced air pressure
vv = visibility
sd = Ensoleillement
rr = Quantités de précipitations

stations d'obs. à proximité